Flag for Germany Weather past 2 weeks in Kehl, Baden-Württemberg, Germany

Now
37 °F

Clear.


Feels Like: 32 °F
Forecast: 34 / 43 °F
Wind: 7 mph from Northwest

Location: Strasbourg Airport

Current Time: Mar 4, 2015 at 11:51:05 PM

Latest Report: Mar 4, 2015 at 11:30 PM


Visibility: N/A

Pressure: 30.48 "Hg

Humidity: 81%

Dew point: 32 °F

Location of KehlLocation

Historic Weather in Kehl — Graph

°F

Kehl temperature yesterday

Maximum temperature yesterday: 55 °F (at 3:00 PM)
Minimum temperature yesterday: 34 °F (at 2:00 AM)
Average temperature yesterday: 44 °F

Past Weeks' High & Low Weather Summary

 TemperatureHumidityPressure
High57 °F (Feb 20, 2:30 PM)100% (Feb 19, 11:30 PM)30.72 "Hg (Feb 19, 11:30 PM)
Low25 °F (Feb 20, 5:00 AM)36% (Mar 3, 4:30 PM)29.50 "Hg (Feb 23, 2:00 PM)
Average41 °F77%30.02 "Hg
* Reported Feb 17 10:00 PM — Mar 4 10:00 PM, Kehl, Weather by CustomWeather, © 2015

Note: Actual official high and low records may vary slightly from our data, if they occured in-between our weather recording intervals... More about our weather records

Advertising

Kehl weather history for previous 24 hours

 ConditionsComfort  
Time TempWeatherWind HumidityBarometerVisibility
10:00 PM
Wed, Mar 4
37 °FPassing clouds.5 mph81%30.45 "HgN/A
9:30 PM37 °FPassing clouds.6 mph81%30.45 "HgN/A
9:00 PM37 °FPassing clouds.6 mph81%30.45 "HgN/A
8:30 PM37 °FPassing clouds.6 mph81%30.42 "HgN/A
8:00 PM39 °FClear.7 mph75%30.42 "HgN/A
7:30 PM41 °FClear.6 mph66%30.42 "HgN/A
7:00 PM41 °FPassing clouds.5 mph66%30.39 "HgN/A
6:30 PM43 °FPassing clouds.5 mph61%30.39 "HgN/A
6:00 PM43 °FPartly sunny.8 mph66%30.39 "HgN/A
5:30 PM45 °FScattered clouds.8 mph57%30.36 "HgN/A
5:00 PM46 °FPartly sunny.10 mph53%30.36 "HgN/A
4:30 PM46 °FPartly sunny.12 mph53%30.36 "HgN/A
4:00 PM46 °FMostly cloudy.10 mph53%30.36 "HgN/A
3:30 PM48 °FPartly sunny.7 mph43%30.33 "HgN/A
3:00 PM46 °FPartly sunny.9 mph46%30.33 "HgN/A
2:30 PM48 °FBroken clouds.12 mph50%30.33 "HgN/A
2:00 PM46 °FClear.12 mph53%30.36 "HgN/A
1:30 PM46 °FScattered clouds.10 mph53%30.36 "HgN/A
1:00 PM45 °FBroken clouds.10 mph57%30.36 "HgN/A
12:30 PM45 °FBroken clouds.7 mph53%30.36 "HgN/A
12:00 PM45 °FPartly sunny.9 mph57%30.36 "HgN/A
11:30 AM46 °FPartly sunny.8 mph53%30.36 "HgN/A
11:00 AM45 °FPartly sunny.8 mph53%30.36 "HgN/A
10:30 AM45 °FBroken clouds.8 mph61%30.33 "HgN/A
10:00 AM43 °FPassing clouds.8 mph66%30.33 "HgN/A
9:30 AM43 °FScattered clouds.7 mph66%30.33 "HgN/A
9:00 AM43 °FPartly sunny.3 mph71%30.33 "HgN/A
8:30 AM39 °FBroken clouds.3 mph81%30.33 "HgN/A
8:00 AM37 °FPartly sunny.2 mph87%30.30 "HgN/A
7:30 AM37 °FBroken clouds.3 mph87%30.30 "HgN/A
7:00 AM37 °FMostly cloudy.No wind87%30.30 "HgN/A
6:30 AM37 °FMostly cloudy.1 mph87%30.30 "HgN/A
6:00 AM39 °FMostly cloudy.3 mph81%30.27 "HgN/A
5:30 AM39 °FMostly cloudy.3 mph81%30.27 "HgN/A
5:00 AM39 °FOvercast.2 mph81%30.27 "HgN/A
4:30 AM39 °FMostly cloudy.No wind81%30.27 "HgN/A
4:00 AM37 °FMostly cloudy.2 mph87%30.24 "HgN/A
3:30 AM39 °FMostly cloudy.3 mph81%30.24 "HgN/A
3:00 AM39 °FPartly cloudy.6 mph81%30.24 "HgN/A
2:30 AM39 °FPartly cloudy.5 mph81%30.24 "HgN/A
2:00 AM41 °FClear.2 mph76%30.21 "HgN/A
1:30 AM41 °FClear.5 mph81%30.21 "HgN/A
1:00 AM41 °FMostly cloudy.8 mph81%30.21 "HgN/A
12:30 AM41 °FMostly cloudy.9 mph81%30.21 "HgN/A
12:00 AM41 °FLight rain. Mostly cloudy.8 mph87%30.21 "HgN/A
11:30 PM
Tue, Mar 3
41 °FLight rain. Mostly cloudy.15 mph87%30.21 "HgN/A
11:00 PM45 °FLight rain. Mostly cloudy.16 mph81%30.18 "HgN/A
Weather by CustomWeather, © 2015

See weather overviewHow to use our weather pages